Volver al catálogo

STARLINK-36143

ActivoComunicacionesVLEO
NORAD 67056·PAYLOAD·🇺🇸 United States

Lanzado Dec 11, 2025 desde Cape Canaveral Space Force Station

Loading…

Próximos Pases (próximas 24 horas)

TLE

ActualizadoSource: CelesTrak SupGP

Época: Sep 15, 2026, 02:35 UTC

1 67056C 25294AC  26258.10812500 -.00028977  00000+0 -10506-2 0  2582
2 67056  43.0043  48.2074 0001529 263.3879 318.5377 15.27560326    12

Sigue STARLINK-36143 en tiempo real con AllMySat

Download on the App Store